Weather History for Hollywood, FL

Change the Weather History Date:

Thursday, December 27, 2012

  Actual Average (KFLL) Record (KFLL)
Temperature  
Mean Temperature 63 °F 69 °F  
Max Temperature 72 °F 77 °F 86 °F (1997)
Min Temperature 54 °F 62 °F 38 °F (1956)
Degree Days  
Heating Degree Days 2 1  
Month to date heating degree days 22  
Since 1 July heating degree days 24  
Cooling Degree Days 0 6  
Month to date cooling degree days 194  
Year to date cooling degree days 4707  
Growing Degree Days 13 (Base 50)    
Moisture  
Dew Point 49 °F    
Average Humidity 67    
Maximum Humidity 90    
Minimum Humidity 34    
Precipitation  
Precipitation 0.00 in 0.06 in 3.22 in (1940)
Month to date precipitation 2.24  
Year to date precipitation 61.96  
Snow  
Snow 0.00 in - - ()
Month to date snowfall  
Since 1 July snowfall  
Snow Depth -    
Sea Level Pressure  
Sea Level Pressure 30.05 in    
Wind  
Wind Speed 7 mph (NW)    
Max Wind Speed 12 mph    
Max Gust Speed -    
Visibility 10 miles    
Events      
T = Trace of Precipitation, MM = Missing Value Source: NWS Daily Summary

Daily Weather History Graph

Daily Weather History Graph

Search for Another Location

Airport:

Trip Planner

Search our weather history database for the weather conditions in past years. The results will help you decide how hot, cold, wet, or windy it might be!

Date:

Astronomy

Dec. 27, 2012 Rise Set
Actual Time 7:06 AM EST 5:38 PM EST
Civil Twilight 6:41 AM EST 6:03 PM EST
Nautical Twilight 6:12 AM EST 6:32 PM EST
Astronomical Twilight 5:44 AM EST 7:00 PM EST
Moon 5:16 PM EST (12/27) 6:19 AM EST (12/27)
Length of Visible Light 11h 22m
Length of Day
10h 31m
Full, 100% of the Moon is Illuminated
Dec 27
Full
Dec 28
Full
Jan 4
Last Quarter
Jan 11
New
Jan 18
First Quarter

Hourly Weather History & Observations

Time (EST) Temp. Dew Point Humidity Pressure Visibility Wind Dir Wind Speed Gust Speed Precip Events Conditions
12:53 AM 62.1 °F 59.0 °F 90% 30.02 in 10.0 mi WNW 9.2 mph - N/A   Scattered Clouds
1:53 AM 60.1 °F 55.0 °F 83% 30.01 in 10.0 mi NW 11.5 mph - N/A   Clear
2:53 AM 57.9 °F 55.0 °F 90% 30.01 in 10.0 mi NW 5.8 mph - N/A   Clear
3:53 AM 57.0 °F 52.0 °F 83% 30.03 in 10.0 mi NW 11.5 mph - N/A   Clear
4:53 AM 55.9 °F 52.0 °F 87% 30.03 in 10.0 mi NW 10.4 mph - N/A   Clear
5:53 AM 55.0 °F 51.1 °F 86% 30.04 in 10.0 mi NNW 5.8 mph - N/A   Clear
6:53 AM 54.0 °F 51.1 °F 90% 30.05 in 10.0 mi NW 9.2 mph - N/A   Clear
7:53 AM 54.0 °F 51.1 °F 90% 30.08 in 10.0 mi NW 8.1 mph - N/A   Clear
8:53 AM 57.9 °F 51.1 °F 78% 30.10 in 10.0 mi North 8.1 mph - N/A   Clear
9:53 AM 60.1 °F 50.0 °F 69% 30.10 in 10.0 mi NNW 9.2 mph - N/A   Clear
10:53 AM 62.1 °F 48.0 °F 60% 30.09 in 10.0 mi WNW 5.8 mph - N/A   Clear
11:53 AM 64.9 °F 46.9 °F 52% 30.07 in 10.0 mi WNW 3.5 mph - N/A   Clear
12:53 PM 68.0 °F 44.1 °F 42% 30.04 in 10.0 mi Variable 4.6 mph - N/A   Clear
1:53 PM 70.0 °F 43.0 °F 38% 30.02 in 10.0 mi WNW 3.5 mph - N/A   Clear
2:53 PM 72.0 °F 42.1 °F 34% 30.02 in 10.0 mi WNW 4.6 mph - N/A   Clear
3:53 PM 72.0 °F 43.0 °F 35% 30.02 in 10.0 mi NW 5.8 mph - N/A   Clear
4:53 PM 70.0 °F 46.0 °F 42% 30.03 in 10.0 mi NW 3.5 mph - N/A   Clear
5:53 PM 66.0 °F 46.9 °F 50% 30.05 in 10.0 mi Calm Calm - N/A   Clear
6:53 PM 64.0 °F 50.0 °F 60% 30.05 in 10.0 mi Calm Calm - N/A   Clear
7:53 PM 61.0 °F 50.0 °F 67% 30.07 in 10.0 mi WNW 3.5 mph - N/A   Clear
8:53 PM 59.0 °F 48.9 °F 69% 30.08 in 10.0 mi Calm Calm - N/A   Clear
9:53 PM 55.9 °F 48.0 °F 75% 30.09 in 10.0 mi North 3.5 mph - N/A   Clear
10:53 PM 55.9 °F 46.0 °F 69% 30.09 in 10.0 mi Calm Calm - N/A   Clear
11:53 PM 55.9 °F 46.0 °F 69% 30.08 in 10.0 mi North 3.5 mph - N/A   Clear